Weather in Makazhoy

Russia / Chechen Republic     42°44′39″N   46°03′42″E
temp.,
°C
wind,
m/s
gust,
m/s
humid.,
%
clouds,
%
prec.,
mm/h
press.,
hPa
HPBL,
m
16 june, wed
wed1600:00+12sse22850 0.0 101422
03:00+11sse22800 0.0 101429
06:00+14se23760 0.0 101382
09:00+20ese23520 0.0 1010554
12:00+24e24472 0.0 10091283
15:00+24ne24481 0.0 10081522
18:00+21n12740 0.1 1009119
21:00+15s33760 0.1 101132
17 june, thu
thu1700:00+13sse33660 0.0 101148
03:00+12s44620 0.0 101049
06:00+15s34630 0.0 100974
09:00+23s34350 0.0 1007708
12:00+23nnw33430 0.0 10081453
15:00+19nnw447828 1.8 1011554
18:00+15nw349660 2.0 1015270
21:00+12wnw019413 2.7 101814
18 june, fri
fri1800:00+11nw119219 0.1 101815
03:00+12nw229795 0.6 1019119
06:00+12nw229892 0.3 1019131
09:00+14nnw118772 0.3 1019467
12:00+17n227483 0.3 1017808
15:00+17n338177 2.9 1018669
18:00+15n128582 1.4 1020330
21:00+12se21920 1.5 102119
19 june, sat
sat1900:00+11se11920 0.0 102115
03:00+11sse22900 0.0 102120
06:00+13se22810 0.0 102165
09:00+20ene12570 0.0 1019639
12:00+23ne22510 0.0 10171214
15:00+22nne225930 0.1 10171281
18:00+20nne11758 0.4 1018503
21:00+15se22910 0.4 102025
20 june, sun
sun2000:00+13sse33740 0.0 102040
03:00+12sse33590 0.0 102036
06:00+14sse34650 0.0 102068
09:00+22sse23370 0.0 1017621
12:00+26se23300 0.0 10151429
15:00+27sse12320 0.0 10131527
18:00+24s11570 0.0 101419
21:00+16s33570 0.0 101833